Dewpoint
54 54 53 52 52 53 52 52 53 52 51 51 50 49 49 49 49 49 49 49 49 49 49 49 49 49 49 49 49 48 48 50 50 50 48 49 48 48 48 47 48 46
52 53 52 52 52 52 52 54 52 50 51 51 50 49 49 48 48 48 48 47 47 48 48 48 48 47 47 47 48 48 47 48 47 49 48 46 46 46 47 47 46 44
52 52 51 50 51 51 51 52 52 51 50 49 50 50 49 49 48 48 48 47 47 47 48 47 47 46 46 47 48 48 46 47 47 48 48 46 47 46 46 46 46 44
51 51 50 49 50 49 50 50 51 50 50 49 48 48 47 47 47 46 46 46 45 45 46 46 47 46 45 45 47 47 46 45 46 46 46 46 46 46 46 45 45 43
50 50 50 50 50 50 50 49 48 48 47 48 48 48 47 47 45 43 45 45 45 43 44 45 45 46 46 46 45 46 46 46 46 45 45 45 45 45 44 44 43 41
49 47 47 47 48 49 49 47 45 45 46 47 47 46 45 44 43 42 42 42 42 42 43 43 43 45 45 45 46 46 46 45 44 44 43 43 43 43 44 44 41 39
49 49 48 47 48 49 48 47 47 46 46 45 44 45 45 43 42 40 39 40 38 40 39 41 42 44 45 45 45 45 45 44 43 42 41 43 43 42 42 42 41 38
48 48 47 47 48 47 46 45 45 46 46 45 44 43 42 41 41 42 39 39 38 38 39 39 41 42 44 45 44 44 44 45 44 42 42 42 42 40 40 41 40 38
47 47 46 47 47 46 45 44 45 45 44 44 43 44 43 41 41 40 40 37 36 38 37 39 40 41 44 44 44 43 42 44 44 42 42 42 41 40 39 40 39 39
47 47 46 45 45 46 45 46 45 45 44 43 42 44 42 43 40 38 39 38 37 36 37 38 40 41 42 43 42 42 42 41 41 42 41 41 40 39 39 38 38 38
48 47 47 47 47 46 46 45 45 44 44 41 43 42 41 41 39 37 37 37 39 35 36 37 38 39 41 42 44 43 42 42 41 41 40 40 40 39 39 38 38 37
47 47 46 46 45 46 46 45 45 43 43 42 40 40 41 41 40 38 36 35 35 35 35 36 37 38 39 40 41 42 43 43 42 42 40 39 40 40 39 38 38 37
45 46 46 46 46 46 45 43 43 44 41 40 41 41 41 40 39 38 38 36 35 36 35 36 37 37 38 38 39 40 42 41 42 42 42 44 41 39 38 39 37 38
45 45 44 44 45 44 43 44 43 43 43 43 42 42 41 39 39 38 38 36 36 35 36 37 36 36 36 37 37 38 40 42 41 42 41 40 41 39 39 38 37 37
45 44 44 44 43 43 43 42 42 42 42 42 42 42 43 40 40 39 37 36 35 35 34 35 36 37 38 38 38 37 38 40 42 40 41 40 40 40 38 37 37 37
41 43 42 42 42 42 42 42 41 43 43 42 41 41 41 41 39 39 37 36 35 34 34 36 35 37 38 37 37 38 38 39 42 43 39 41 42 41 39 39 38 36
40 40 41 40 41 42 42 41 41 43 42 42 42 42 42 41 40 37 37 36 34 34 34 34 35 37 37 36 36 37 38 39 41 43 42 40 39 41 38 40 40 37
38 38 38 39 39 38 38 39 41 41 41 41 42 42 42 42 41 38 37 37 36 34 34 34 34 37 35 36 35 35 37 39 41 43 42 40 40 39 39 39 37 38
35 36 36 37 37 37 40 40 40 41 41 41 41 43 43 43 41 41 39 38 36 33 33 32 32 36 35 35 35 35 35 38 40 43 40 42 40 41 39 38 37 38
34 35 36 36 37 38 39 39 40 40 42 42 43 43 43 42 42 41 40 39 37 35 34 33 33 37 35 35 35 34 34 36 42 44 42 41 36 37 40 38 39 36
35 35 35 36 36 38 39 39 40 41 40 41 41 41 41 41 41 42 41 40 38 36 35 34 36 35 34 34 34 34 35 38 41 43 41 42 38 38 40 39 39 38
34 34 35 35 36 37 38 39 40 41 40 40 40 40 40 40 42 42 42 41 39 38 36 34 34 34 34 34 34 34 35 39 39 38 39 39 38 36 37 39 40 38
33 34 35 35 36 37 38 39 39 39 40 40 40 40 39 39 40 40 41 42 41 39 37 35 33 35 34 34 34 35 36 37 38 34 37 37 38 39 37 40 41 38
33 32 34 35 36 36 37 39 39 40 39 40 38 38 37 37 37 36 37 39 39 40 40 37 35 36 34 35 34 35 36 37 34 33 34 35 35 37 36 40 39 43
32 33 34 35 36 38 39 39 39 40 40 41 40 39 39 38 37 36 36 37 38 40 41 40 37 37 34 34 35 35 37 36 34 32 32 33 34 35 36 35 40 41
34 35 36 36 36 38 39 39 39 39 40 39 40 36 35 36 38 38 38 37 38 38 39 40 39 37 36 34 34 35 36 37 35 33 31 32 34 34 34 34 34 32